Location: Unspecified
(53.3500°N, 0.0000°E)
Time: 03:57:54
(UTC+00:00)

deb Delta - Visible Passes

Search period start: 04 April 2026 00:00
Search period end: 14 April 2026 00:00
Orbit: 867 x 929 km, 99.0° (Epoch: 29 March)

Date Brightness Start Highest point End Pass type
(mag) Time Alt. Az. Time Alt. Az. Time Alt. Az.
4 Apr ? 00:52:42 16° WNW 00:52:42 16° WNW 00:55:23 10° NW visible
4 Apr ? 21:28:35 22° ENE 21:30:06 25° NE 21:34:36 10° N visible
4 Apr ? 23:11:34 76° WNW 23:11:34 76° WNW 23:16:58 10° NNW visible
5 Apr ? 00:54:34 16° WNW 00:54:34 16° WNW 00:57:14 10° NW visible
5 Apr ? 21:30:27 23° E 21:32:00 26° NE 21:36:34 10° N visible
5 Apr ? 23:13:26 75° WNW 23:13:26 75° WNW 23:18:53 10° NNW visible
6 Apr ? 00:56:26 15° WNW 00:56:26 15° WNW 00:59:04 10° NW visible
6 Apr ? 21:32:19 23° E 21:33:56 26° NE 21:38:32 10° N visible
6 Apr ? 23:15:18 74° W 23:15:18 74° W 23:20:49 10° NNW visible
7 Apr ? 00:58:18 15° WNW 00:58:18 15° WNW 01:00:54 10° NW visible
7 Apr ? 21:34:11 23° E 21:35:51 27° NE 21:40:29 10° N visible
7 Apr ? 23:17:10 72° W 23:17:10 72° W 23:22:45 10° NNW visible
8 Apr ? 01:00:10 14° W 01:00:10 14° W 01:02:44 10° NW visible
8 Apr ? 21:36:03 23° E 21:37:46 27° NE 21:42:26 10° N visible
8 Apr ? 23:19:02 70° W 23:19:02 70° W 23:24:41 10° NNW visible
9 Apr ? 01:02:02 14° W 01:02:02 14° W 01:04:32 10° NW visible
9 Apr ? 21:37:55 24° E 21:39:41 28° NE 21:44:24 10° N visible
9 Apr ? 23:20:54 68° WSW 23:20:56 68° WSW 23:26:36 10° NNW visible
10 Apr ? 01:03:54 13° W 01:03:54 13° W 01:06:21 10° NW visible
10 Apr ? 21:39:47 24° E 21:41:36 29° NE 21:46:21 10° N visible
10 Apr ? 23:22:46 66° WSW 23:22:53 66° WSW 23:28:31 10° NNW visible
11 Apr ? 01:05:46 13° W 01:05:46 13° W 01:08:09 10° WNW visible
11 Apr ? 21:41:39 24° E 21:43:31 29° ENE 21:48:18 10° N visible
11 Apr ? 23:24:38 64° WSW 23:24:49 64° WSW 23:30:28 10° NNW visible
12 Apr ? 01:07:38 12° W 01:07:38 12° W 01:09:55 10° WNW visible
12 Apr ? 21:43:31 25° E 21:45:26 30° ENE 21:50:15 10° N visible
12 Apr ? 23:26:30 61° WSW 23:26:46 62° WSW 23:32:23 10° NNW visible
13 Apr ? 01:09:30 12° W 01:09:34 12° W 01:11:39 10° WNW visible
13 Apr ? 21:45:23 25° E 21:47:20 31° ENE 21:52:12 10° N visible
13 Apr ? 23:28:22 59° WSW 23:28:43 60° WSW 23:34:18 10° NNW visible
